Tracking 31027 objects as of 19-Jul-2025
HD Live streaming from Space Station
objects crossing your sky now

COSMOS 1275 DEB

Track COSMOS 1275 DEB now!
10-day predictions


NORAD ID: 20505
Int'l Code: 1981-053MS
Perigee: 716.0 km
Apogee: 738.6 km
Inclination: 83.2 °
Period: 99.2 minutes
Semi major axis: 7098 km
RCS: 0.0047 m2 (small)
Launch date: June 4, 1981
Source: Commonwealth of Independent States (former USSR) (CIS)
Launch site: PLESETSK MISSILE AND SPACE COMPLEX (PKMTR)

Note: This is SATELLITE DEBRIS
Your satellite tracking list
IRIDIUM 106
Track 1 satellite(s)




NASA's NSSDC Master Catalog

Two Line Element Set (TLE):
1 20505U 81053MM  25197.16684709  .00003300  00000-0  81685-3 0  9991
2 20505  83.1546 167.1325 0015937  10.1716 349.9803 14.51682859626613
Source of the keplerian elements: AFSPC